Total_Precipitation_Accumulation
1.86 1.95 1.96 1.96 1.95 1.88 1.90 1.97 2.06 2.00 1.82 1.62 1.57 1.52 1.56 1.57 1.69 1.35 1.34 1.52 1.36 1.25 1.18 1.14 1.13 1.08 1.04 1.02 0.99 0.98 1.03 1.12 1.23 1.32 1.41 1.51 1.65 1.83
1.58 1.70 1.79 1.84 1.94 1.96 2.02 2.05 2.07 2.08 2.00 1.75 1.66 1.61 1.58 1.53 1.78 1.51 1.47 1.52 1.32 1.18 1.07 0.99 0.97 0.93 0.89 0.89 0.91 0.91 0.90 0.92 0.96 1.02 1.11 1.21 1.32 1.46
1.40 1.47 1.56 1.62 1.73 1.78 1.83 1.85 1.94 1.99 1.98 1.82 1.70 1.67 1.63 1.62 1.66 1.53 1.44 1.36 1.26 1.17 1.02 0.93 0.90 0.87 0.85 0.86 0.87 0.87 0.86 0.86 0.89 0.92 0.96 1.04 1.11 1.19
1.21 1.26 1.32 1.38 1.45 1.45 1.54 1.60 1.62 1.70 1.75 1.84 1.88 1.80 1.72 1.69 1.60 1.45 1.26 1.12 1.08 1.09 0.98 0.92 0.91 0.91 0.93 0.94 0.92 0.89 0.84 0.77 0.78 0.83 0.88 0.89 0.90 0.98
1.00 1.05 1.11 1.16 1.17 1.15 1.20 1.24 1.32 1.41 1.60 1.69 1.73 1.76 1.72 1.73 1.74 1.48 1.31 1.28 1.00 0.96 0.91 0.90 0.89 0.88 0.87 0.86 0.83 0.81 0.79 0.70 0.62 0.63 0.71 0.78 0.81 0.81
0.85 0.88 0.88 0.90 0.89 0.91 0.91 0.97 1.09 1.30 1.47 1.55 1.51 1.52 1.58 1.55 1.65 1.57 1.46 1.35 1.16 0.88 0.82 0.75 0.77 0.78 0.77 0.72 0.70 0.68 0.69 0.71 0.68 0.64 0.62 0.61 0.63 0.64
0.76 0.74 0.71 0.73 0.75 0.74 0.71 0.80 0.96 1.18 1.30 1.39 1.42 1.37 1.35 1.39 1.42 1.36 1.37 1.37 1.25 1.03 0.94 0.78 0.71 0.74 0.78 0.77 0.73 0.66 0.61 0.60 0.61 0.59 0.57 0.57 0.57 0.59
0.75 0.67 0.62 0.63 0.62 0.61 0.63 0.69 0.79 0.90 1.02 1.16 1.23 1.25 1.23 1.23 1.31 1.31 1.32 1.35 1.34 1.15 1.09 0.99 0.82 0.90 0.87 0.79 0.74 0.66 0.64 0.64 0.62 0.61 0.61 0.60 0.58 0.57
0.82 0.80 0.68 0.56 0.62 0.63 0.64 0.66 0.69 0.72 0.81 0.97 1.09 1.10 1.12 1.19 1.32 1.33 1.36 1.36 1.34 1.19 1.20 1.19 1.04 1.01 0.81 0.69 0.71 0.65 0.61 0.59 0.60 0.58 0.59 0.58 0.59 0.58
0.77 0.78 0.79 0.77 0.70 0.69 0.65 0.67 0.71 0.77 0.81 0.86 1.00 1.03 0.97 1.03 1.19 1.24 1.24 1.22 1.19 1.15 1.19 1.25 1.04 0.95 0.75 0.78 0.72 0.60 0.55 0.56 0.57 0.51 0.51 0.52 0.56 0.60
0.61 0.61 0.61 0.63 0.61 0.62 0.67 0.75 0.78 0.80 0.71 0.75 0.80 0.86 0.94 0.97 0.98 1.04 1.15 1.29 1.28 1.18 1.15 1.25 1.13 0.97 0.84 0.88 0.78 0.64 0.59 0.63 0.60 0.49 0.45 0.44 0.47 0.53
0.56 0.55 0.53 0.49 0.47 0.46 0.54 0.73 0.87 0.85 0.78 0.77 0.88 1.03 1.09 1.09 0.99 1.03 1.15 1.26 1.28 1.31 1.16 1.19 1.21 1.09 1.02 0.85 0.81 0.80 0.80 0.84 0.76 0.59 0.48 0.46 0.48 0.52
0.57 0.57 0.55 0.45 0.39 0.39 0.47 0.61 0.69 0.67 0.76 0.97 1.16 1.22 1.19 1.12 1.02 0.97 1.06 1.19 1.28 1.33 1.14 1.12 1.19 1.21 1.25 1.07 0.83 0.85 0.95 1.05 1.03 0.85 0.64 0.56 0.54 0.51
0.52 0.52 0.49 0.43 0.36 0.37 0.40 0.47 0.50 0.60 0.84 1.10 1.24 1.19 1.01 0.87 0.85 0.82 0.85 0.98 1.11 1.12 1.05 1.08 1.19 1.23 1.25 1.16 0.99 0.91 1.02 1.16 1.21 1.13 0.93 0.79 0.72 0.65
0.43 0.43 0.42 0.44 0.45 0.50 0.52 0.51 0.58 0.76 0.97 1.10 1.12 1.01 0.89 0.81 0.77 0.78 0.74 0.85 0.90 0.83 0.77 0.85 1.03 1.11 1.21 1.22 1.17 1.19 1.26 1.37 1.36 1.32 1.22 1.01 0.86 0.80
0.40 0.46 0.54 0.61 0.62 0.63 0.66 0.74 0.79 0.85 0.87 0.96 0.96 0.88 0.75 0.71 0.72 0.71 0.73 0.78 0.86 0.84 0.76 0.76 0.87 1.04 1.16 1.17 1.25 1.34 1.38 1.58 1.55 1.42 1.36 1.29 1.12 0.93
0.41 0.54 0.71 0.76 0.76 0.73 0.70 0.71 0.76 0.76 0.79 0.80 0.78 0.76 0.72 0.68 0.66 0.63 0.67 0.68 0.77 0.79 0.80 0.78 0.83 0.89 0.89 0.96 1.12 1.18 1.25 1.42 1.52 1.45 1.41 1.48 1.45 1.22
0.44 0.66 0.77 0.78 0.79 0.71 0.66 0.62 0.63 0.65 0.64 0.65 0.65 0.67 0.68 0.67 0.66 0.62 0.61 0.64 0.71 0.70 0.71 0.74 0.78 0.85 0.83 0.76 0.93 1.07 1.10 1.28 1.38 1.34 1.27 1.42 1.55 1.34
0.46 0.60 0.69 0.73 0.73 0.65 0.60 0.60 0.61 0.60 0.56 0.55 0.58 0.61 0.63 0.63 0.63 0.63 0.63 0.65 0.66 0.66 0.64 0.62 0.67 0.77 0.84 0.89 0.92 1.03 1.06 1.12 1.15 1.15 1.15 1.21 1.39 1.34
0.48 0.54 0.58 0.62 0.64 0.61 0.58 0.57 0.57 0.56 0.54 0.52 0.53 0.57 0.60 0.60 0.57 0.57 0.58 0.57 0.59 0.62 0.62 0.60 0.61 0.67 0.75 0.84 1.00 1.06 1.03 0.91 0.88 0.94 0.99 1.07 1.18 1.17
0.46 0.48 0.50 0.52 0.52 0.52 0.53 0.53 0.52 0.51 0.51 0.50 0.52 0.55 0.57 0.57 0.56 0.51 0.47 0.45 0.50 0.56 0.59 0.60 0.57 0.52 0.55 0.63 0.80 0.95 0.97 1.00 0.91 0.81 0.80 0.87 0.90 0.83
0.40 0.45 0.47 0.46 0.44 0.42 0.41 0.43 0.46 0.46 0.43 0.44 0.49 0.55 0.57 0.55 0.51 0.46 0.46 0.49 0.52 0.54 0.55 0.53 0.50 0.48 0.52 0.62 0.75 0.89 0.90 0.81 0.78 0.79 0.75 0.61 0.53 0.59
0.42 0.43 0.41 0.39 0.37 0.36 0.37 0.38 0.39 0.40 0.42 0.43 0.45 0.49 0.49 0.47 0.44 0.40 0.38 0.39 0.41 0.42 0.47 0.51 0.49 0.49 0.50 0.52 0.58 0.65 0.66 0.59 0.49 0.51 0.62 0.65 0.55 0.54